M I D A S
Marine Information and Data Acquisition System
Tripno 1447 of the Zeeleeuw from 2008-03-28 07:28:51 to 2008-03-28 13:09:42
Back to CruiseResearch ActivitiesStationsMapUnderway DataData graphs

EquipmentUnitsComment
TimeDGPSUTC
LatitudeDGPSDM.mWGS84
LongitudeDGPSDM.mWGS84
TemperatureSBE03/SBE38deg celciusITS90
ConductivitySBE21S/mITS90
SalinitySBE21 Practical Salinity Units
ChlorophylAChelsea fluorimeterg/lCalibrated in Aceton
Missing or incorrect values are displayed as -999
Sea surface data collected by the RV Zeeleeuw from 2008-03-28 06:49:31 to 2008-03-28 13:15:27
Time Latitude Longitude Temperature Conductivity Salinity ChlorophylA
2008-03-28 06:50:36 51°13.666 2°55.955 13.9194 0.148107 0.835189 -1.731873
2008-03-28 06:51:36 51°13.665 2°55.955 13.922 0.148107 0.835174 -1.766697
2008-03-28 06:52:37 51°13.665 2°55.954 13.925 0.148107 0.835174 -1.766697
2008-03-28 06:53:36 51°13.665 2°55.954 13.928 0.148107 0.835159 -1.731873
2008-03-28 06:54:36 51°13.666 2°55.954 13.9307 0.148107 0.835144 -1.766697
2008-03-28 06:55:36 51°13.666 2°55.954 13.9334 0.148107 0.835144 -1.766697
2008-03-28 06:56:37 51°13.665 2°55.953 13.9364 0.148107 0.835114 -1.766697
2008-03-28 06:57:37 51°13.665 2°55.953 13.9396 0.148107 0.835114 -1.766697
2008-03-28 06:58:36 51°13.665 2°55.953 13.9427 0.148107 0.835114 -1.766697
2008-03-28 06:59:37 51°13.665 2°55.953 13.946 0.148107 0.835099 -1.731873
2008-03-28 07:00:36 51°13.665 2°55.953 13.9494 0.148107 0.835099 -1.766697
2008-03-28 07:01:36 51°13.665 2°55.953 13.9527 0.148107 0.835084 -1.731873
2008-03-28 07:02:37 51°13.665 2°55.953 13.956 0.14821 0.835691 -1.731873
2008-03-28 07:03:36 51°13.665 2°55.953 13.9595 0.148107 0.835084 -1.731873
2008-03-28 07:04:37 51°13.666 2°55.953 13.9635 0.148107 0.835068 -1.766697
2008-03-28 07:05:36 51°13.666 2°55.953 13.967 0.14821 0.835676 -1.766697
2008-03-28 07:06:36 51°13.665 2°55.953 13.9711 0.14821 0.835661 -1.766697
2008-03-28 07:07:37 51°13.665 2°55.953 13.9749 0.14821 0.835646 -1.731873
2008-03-28 07:08:36 51°13.665 2°55.953 13.9789 0.14821 0.835631 -1.766697
2008-03-28 07:09:36 51°13.665 2°55.954 13.9828 0.14821 0.835616 -1.731873
2008-03-28 07:10:36 51°13.666 2°55.954 13.9871 0.14821 0.835616 -1.766697
2008-03-28 07:11:36 51°13.666 2°55.953 13.9913 0.14821 0.835616 -1.731873
2008-03-28 07:12:37 51°13.666 2°55.953 13.9954 0.14821 0.835601 -1.766697
2008-03-28 07:13:36 51°13.666 2°55.953 13.9997 0.14821 0.835601 -1.766697
2008-03-28 07:14:37 51°13.666 2°55.953 14.0042 0.14821 0.835601 -1.766697
2008-03-28 07:15:37 51°13.666 2°55.953 14.0084 0.14821 0.835586 -1.766697
2008-03-28 07:16:37 51°13.667 2°55.954 14.0128 0.14821 0.835586 -1.766697
2008-03-28 07:17:37 51°13.667 2°55.954 14.0175 0.14821 0.835586 -1.766697
2008-03-28 07:18:37 51°13.666 2°55.954 14.0218 0.14821 0.835586 -1.766697
2008-03-28 07:19:37 51°13.667 2°55.955 14.0261 0.14821 0.835571 -1.766697
2008-03-28 07:20:37 51°13.667 2°55.956 14.0312 0.14821 0.835571 -1.766697
2008-03-28 07:21:37 51°13.666 2°55.956 14.0355 0.14821 0.835571 -1.766697
2008-03-28 07:22:37 51°13.666 2°55.955 14.0399 0.14821 0.835586 -1.766697
2008-03-28 07:23:37 51°13.665 2°55.954 14.0434 0.14821 0.835586 -1.731873
2008-03-28 07:24:37 51°13.666 2°55.954 14.0474 0.14821 0.835601 -1.731873
2008-03-28 07:25:37 51°13.666 2°55.954 14.0515 0.14821 0.835616 -1.731873
2008-03-28 07:26:37 51°13.666 2°55.953 14.0551 0.148107 0.835038 -1.766697
2008-03-28 07:27:37 51°13.667 2°55.953 14.0598 0.148107 0.835068 -1.766697
2008-03-28 07:28:37 51°13.667 2°55.953 14.0638 0.148107 0.835114 -1.731873
2008-03-28 07:29:37 51°13.667 2°55.953 14.0679 0.148107 0.835159 -1.731873
2008-03-28 07:30:37 51°13.666 2°55.952 14.0721 0.148107 0.835189 -1.731873
2008-03-28 07:31:37 51°13.666 2°55.953 14.0753 0.148107 0.835249 -1.731873
2008-03-28 07:32:37 51°13.665 2°55.953 14.0792 0.148107 0.835294 -1.766697
2008-03-28 07:33:37 51°13.666 2°55.953 14.0831 0.148107 0.835355 -1.766697
2008-03-28 07:34:37 51°13.665 2°55.953 14.0876 0.148107 0.835415 -1.731873
2008-03-28 07:35:37 51°13.666 2°55.953 14.0916 0.148107 0.83549 -1.731873
2008-03-28 07:36:37 51°13.664 2°55.953 14.096 0.148108 0.835581 -1.766697
2008-03-28 07:37:37 51°13.672 2°55.931 14.1009 0.148005 0.835063 -1.766697
2008-03-28 07:38:37 51°13.687 2°55.857 14.1062 0.148005 0.835153 -1.766697
2008-03-28 07:39:37 51°13.689 2°55.777 14.1125 0.148005 0.835229 -1.766697
2008-03-28 07:40:37 51°13.684 2°55.727 14.1178 0.148005 0.835304 -1.731873
2008-03-28 07:41:37 51°13.709 2°55.714 14.1226 0.148005 0.835395 -1.766697
2008-03-28 07:42:37 51°13.811 2°55.636 14.1272 0.148005 0.835395 -1.731873
2008-03-28 07:43:36 51°13.94 2°55.541 14.131 0.147902 0.834862 -1.731873
2008-03-28 07:44:35 51°14.071 2°55.445 14.1349 0.147902 0.834877 -1.766697
2008-03-28 07:45:36 51°14.213 2°55.326 14.1392 0.147902 0.834892 -1.766697
2008-03-28 07:46:36 51°14.327 2°55.126 14.1437 0.147902 0.834877 -1.766697
2008-03-28 07:47:34 51°14.431 2°54.863 14.1485 0.147902 0.834937 -1.731873
2008-03-28 07:48:34 51°14.46 2°54.521 14.1526 0.147902 0.834967 -1.731873
2008-03-28 07:49:34 51°14.408 2°54.181 14.1571 0.147902 0.834997 -1.731873
2008-03-28 07:50:33 51°14.335 2°53.856 14.1599 0.147902 0.835088 -1.731873
2008-03-28 07:51:33 51°14.26 2°53.528 14.1629 0.147902 0.835163 -1.731873
2008-03-28 07:52:33 51°14.184 2°53.2 14.1664 0.147902 0.835284 -1.731873
2008-03-28 07:53:34 51°14.105 2°52.868 14.1694 0.147902 0.835374 -1.731873
2008-03-28 07:54:34 51°14.012 2°52.554 14.1718 0.147799 0.834917 -1.731873
2008-03-28 07:55:33 51°13.908 2°52.259 14.175 0.147799 0.835068 -1.731873
2008-03-28 07:56:33 51°13.826 2°52.101 14.1774 0.147799 0.835203 -1.731873
2008-03-28 07:57:34 51°13.779 2°52.029 14.1801 0.147799 0.835324 -1.766697
2008-03-28 07:58:33 51°13.746 2°51.962 14.1832 0.147696 0.834881 -1.766697
2008-03-28 07:59:33 51°13.717 2°51.9 14.1865 0.147696 0.835032 -1.731873
2008-03-28 08:00:33 51°13.687 2°51.84 14.1909 0.147696 0.835168 -1.766697
2008-03-28 08:01:34 51°13.649 2°51.77 14.1947 0.147593 0.83468 -1.766697
2008-03-28 08:02:34 51°13.598 2°51.691 14.1991 0.147593 0.834816 -1.731873
2008-03-28 08:03:34 51°13.54 2°51.605 14.2035 0.147593 0.834952 -1.731873
2008-03-28 08:04:33 51°13.504 2°51.52 14.2082 0.147593 0.835088 -1.731873
2008-03-28 08:05:33 51°13.489 2°51.459 14.2131 0.14749 0.834599 -1.731873
2008-03-28 08:06:33 51°13.483 2°51.414 14.2181 0.14749 0.834705 -1.731873
2008-03-28 08:07:33 51°13.483 2°51.376 14.2235 0.14749 0.834826 -1.731873
2008-03-28 08:08:33 51°13.485 2°51.342 14.2285 0.14749 0.834947 -1.731873
2008-03-28 08:09:33 51°13.487 2°51.31 14.2332 0.147387 0.834458 -1.731873
2008-03-28 08:10:34 51°13.49 2°51.279 14.2386 0.147387 0.834594 -1.766697
2008-03-28 08:11:34 51°13.494 2°51.248 14.2433 0.147387 0.834745 -1.731873
2008-03-28 08:12:34 51°13.488 2°51.195 14.2486 0.147387 0.834912 -1.731873
2008-03-28 08:13:34 51°13.445 2°51.076 14.2545 0.147284 0.834422 -1.731873
2008-03-28 08:14:33 51°13.376 2°50.878 14.2601 0.147284 0.834589 -1.766697
2008-03-28 08:15:33 51°13.292 2°50.649 14.2649 0.147284 0.83474 -1.731873
2008-03-28 08:16:34 51°13.205 2°50.413 14.2699 0.147181 0.834251 -1.731873
2008-03-28 08:17:33 51°13.115 2°50.173 14.2746 0.147181 0.834342 -1.731873
2008-03-28 08:18:33 51°13.019 2°49.919 14.2795 0.147181 0.834448 -1.766697
2008-03-28 08:19:33 51°12.931 2°49.657 14.285 0.147181 0.834523 -1.731873
2008-03-28 08:20:34 51°12.842 2°49.389 14.2903 0.147181 0.83463 -1.731873
2008-03-28 08:21:34 51°12.753 2°49.126 14.295 0.147078 0.834079 -1.731873
2008-03-28 08:22:34 51°12.667 2°48.862 14.2997 0.147078 0.83417 -1.731873
2008-03-28 08:23:33 51°12.583 2°48.602 14.3055 0.147078 0.834246 -1.766697
2008-03-28 08:24:34 51°12.495 2°48.335 14.3116 0.147078 0.834322 -1.731873
2008-03-28 08:25:33 51°12.408 2°48.077 14.3174 0.147078 0.834397 -1.731873
2008-03-28 08:26:34 51°12.323 2°47.805 14.3235 0.147078 0.834473 -1.731873
2008-03-28 08:27:34 51°12.241 2°47.535 14.3291 0.147078 0.834534 -1.766697
2008-03-28 08:28:33 51°12.166 2°47.261 14.3351 0.146975 0.833998 -1.731873
2008-03-28 08:29:34 51°12.089 2°46.979 14.3412 0.146975 0.834074 -1.731873
2008-03-28 08:30:33 51°12.015 2°46.704 14.3479 0.146975 0.83415 -1.731873
2008-03-28 08:31:33 51°11.937 2°46.427 14.3544 0.146975 0.834211 -1.731873
2008-03-28 08:32:33 51°11.859 2°46.149 14.3614 0.146975 0.834286 -1.766697
2008-03-28 08:33:33 51°11.787 2°45.868 14.3674 0.146975 0.834362 -1.731873
2008-03-28 08:34:34 51°11.712 2°45.583 14.3735 0.146975 0.834423 -1.731873
2008-03-28 08:35:34 51°11.641 2°45.302 14.3795 0.146873 0.833872 -1.731873
2008-03-28 08:36:34 51°11.57 2°45.021 14.3858 0.146873 0.833948 -1.731873
2008-03-28 08:37:34 51°11.5 2°44.741 14.3925 0.146873 0.834024 -1.731873
2008-03-28 08:38:34 51°11.429 2°44.461 14.399 0.146873 0.8341 -1.731873
2008-03-28 08:39:33 51°11.361 2°44.186 14.4059 0.146873 0.834206 -1.731873
2008-03-28 08:40:34 51°11.289 2°43.903 14.4128 0.146873 0.834297 -1.766697
2008-03-28 08:41:34 51°11.231 2°43.616 14.4201 0.146873 0.834403 -1.731873
2008-03-28 08:42:34 51°11.178 2°43.326 14.4272 0.146873 0.834494 -1.731873
2008-03-28 08:43:34 51°11.124 2°43.038 14.4347 0.14677 0.833958 -1.731873
2008-03-28 08:44:33 51°11.073 2°42.753 14.4419 0.14677 0.834034 -1.731873
2008-03-28 08:45:34 51°11.019 2°42.459 14.4489 0.14677 0.83411 -1.766697
2008-03-28 08:46:33 51°10.967 2°42.173 14.4557 0.14677 0.834171 -1.766697
2008-03-28 08:47:33 51°10.915 2°41.884 14.4638 0.14677 0.834247 -1.731873
2008-03-28 08:48:33 51°10.861 2°41.595 14.4721 0.14677 0.834308 -1.731873
2008-03-28 08:49:34 51°10.808 2°41.301 14.4797 0.146667 0.833756 -1.766697
2008-03-28 08:50:34 51°10.76 2°41.015 14.4879 0.146667 0.833832 -1.766697
2008-03-28 08:51:34 51°10.725 2°40.866 14.4964 0.146667 0.833893 -1.766697
2008-03-28 08:52:34 51°10.698 2°40.798 14.5053 0.146667 0.833938 -1.731873
2008-03-28 08:53:34 51°10.622 2°40.75 14.5136 0.146667 0.833984 -1.731873
2008-03-28 08:54:34 51°10.508 2°40.625 14.5224 0.146667 0.83406 -1.766697
2008-03-28 08:55:34 51°10.394 2°40.471 14.531 0.146667 0.834151 -1.766697
2008-03-28 08:56:34 51°10.283 2°40.299 14.5395 0.146667 0.834197 -1.731873
2008-03-28 08:57:33 51°10.203 2°40.162 14.5465 0.146667 0.834273 -1.766697
2008-03-28 08:58:34 51°10.155 2°40.08 14.5538 0.146564 0.833721 -1.731873
2008-03-28 08:59:33 51°10.128 2°40.026 14.5623 0.146564 0.833766 -1.731873
2008-03-28 09:00:33 51°10.114 2°39.977 14.5706 0.146564 0.833842 -1.731873
2008-03-28 09:01:34 51°10.111 2°39.933 14.5783 0.146564 0.833903 -1.766697
2008-03-28 09:02:33 51°10.116 2°39.893 14.5874 0.146564 0.833964 -1.731873
2008-03-28 09:03:34 51°10.126 2°39.856 14.5962 0.146564 0.83404 -1.731873
2008-03-28 09:04:34 51°10.138 2°39.822 14.6043 0.146564 0.834116 -1.766697
2008-03-28 09:05:34 51°10.15 2°39.789 14.6123 0.146564 0.834208 -1.731873
2008-03-28 09:06:34 51°10.162 2°39.75 14.6204 0.146461 0.833686 -1.731873
2008-03-28 09:07:34 51°10.211 2°39.685 14.6277 0.146461 0.833853 -1.766697
2008-03-28 09:08:34 51°10.286 2°39.744 14.6345 0.146461 0.833929 -1.731873
2008-03-28 09:09:33 51°10.398 2°39.906 14.6416 0.146461 0.834036 -1.766697
2008-03-28 09:10:34 51°10.515 2°40.098 14.6505 0.146461 0.834158 -1.731873
2008-03-28 09:11:33 51°10.632 2°40.281 14.6575 0.146358 0.83362 -1.766697
2008-03-28 09:12:34 51°10.753 2°40.473 14.6641 0.146358 0.833712 -1.766697
2008-03-28 09:13:33 51°10.869 2°40.662 14.6708 0.146358 0.833788 -1.731873
2008-03-28 09:14:34 51°10.989 2°40.858 14.6772 0.146358 0.833849 -1.766697
2008-03-28 09:15:34 51°11.105 2°41.052 14.6842 0.146358 0.83391 -1.766697
2008-03-28 09:16:34 51°11.221 2°41.248 14.6916 0.146358 0.833971 -1.766697
2008-03-28 09:17:34 51°11.338 2°41.442 14.7009 0.146255 0.833418 -1.766697
2008-03-28 09:18:34 51°11.451 2°41.639 14.7088 0.146255 0.833463 -1.731873
2008-03-28 09:19:34 51°11.566 2°41.833 14.7168 0.146255 0.833524 -1.731873
2008-03-28 09:20:34 51°11.683 2°42.026 14.7239 0.146255 0.83357 -1.731873
2008-03-28 09:21:34 51°11.792 2°42.231 14.7308 0.146255 0.833631 -1.731873
2008-03-28 09:22:34 51°11.899 2°42.437 14.7391 0.146255 0.833677 -1.731873
2008-03-28 09:23:34 51°12.007 2°42.642 14.7478 0.146255 0.833738 -1.766697
2008-03-28 09:24:34 51°12.115 2°42.846 14.7579 0.146255 0.833784 -1.766697
2008-03-28 09:25:33 51°12.22 2°43.047 14.7669 0.146255 0.833845 -1.766697
2008-03-28 09:26:34 51°12.327 2°43.251 14.7753 0.146255 0.833875 -1.766697
2008-03-28 09:27:33 51°12.427 2°43.449 14.7832 0.146152 0.833322 -1.731873
2008-03-28 09:28:34 51°12.533 2°43.651 14.7913 0.146152 0.833367 -1.766697
2008-03-28 09:29:33 51°12.635 2°43.845 14.7996 0.146152 0.833398 -1.766697
2008-03-28 09:30:34 51°12.743 2°44.044 14.8094 0.146152 0.833459 -1.731873
2008-03-28 09:31:34 51°12.847 2°44.241 14.8182 0.146152 0.833489 -1.766697
2008-03-28 09:32:34 51°12.95 2°44.439 14.8267 0.146152 0.833535 -1.731873
2008-03-28 09:33:34 51°13.061 2°44.626 14.8343 0.146152 0.833566 -1.766697
2008-03-28 09:34:34 51°13.172 2°44.813 14.8418 0.146152 0.833611 -1.766697
2008-03-28 09:35:34 51°13.288 2°44.99 14.8499 0.146152 0.833657 -1.731873
2008-03-28 09:36:34 51°13.409 2°45.162 14.8579 0.146152 0.833703 -1.731873
2008-03-28 09:37:34 51°13.525 2°45.339 14.867 0.146152 0.833749 -1.766697
2008-03-28 09:38:33 51°13.644 2°45.505 14.8758 0.146152 0.833795 -1.766697
2008-03-28 09:39:34 51°13.765 2°45.683 14.8831 0.146152 0.83384 -1.766697
2008-03-28 09:40:34 51°13.887 2°45.856 14.8907 0.146152 0.833871 -1.731873
2008-03-28 09:41:34 51°14.008 2°46.031 14.8983 0.146049 0.833302 -1.731873
2008-03-28 09:42:34 51°14.132 2°46.203 14.9058 0.146049 0.833348 -1.766697
2008-03-28 09:43:34 51°14.248 2°46.385 14.9136 0.146049 0.833394 -1.766697
2008-03-28 09:44:34 51°14.354 2°46.582 14.9231 0.146049 0.833439 -1.731873
2008-03-28 09:45:34 51°14.464 2°46.773 14.9324 0.146049 0.83347 -1.731873
2008-03-28 09:46:34 51°14.568 2°46.972 14.9413 0.146049 0.833485 -1.766697
2008-03-28 09:47:34 51°14.672 2°47.17 14.9496 0.146049 0.833531 -1.731873
2008-03-28 09:48:34 51°14.775 2°47.367 14.9574 0.146049 0.833546 -1.766697
2008-03-28 09:49:34 51°14.88 2°47.564 14.9654 0.146049 0.833577 -1.766697
2008-03-28 09:50:34 51°14.985 2°47.764 14.9745 0.146049 0.833607 -1.731873
2008-03-28 09:51:34 51°15.091 2°47.963 14.9844 0.146049 0.833638 -1.766697
2008-03-28 09:52:34 51°15.194 2°48.165 14.9939 0.146049 0.833668 -1.766697
2008-03-28 09:53:34 51°15.298 2°48.367 15.0025 0.146049 0.833684 -1.766697
2008-03-28 09:54:34 51°15.397 2°48.575 15.0111 0.146049 0.833714 -1.766697
2008-03-28 09:55:34 51°15.489 2°48.789 15.0188 0.146049 0.833745 -1.731873
2008-03-28 09:56:34 51°15.583 2°49.001 15.0272 0.146049 0.833775 -1.766697
2008-03-28 09:57:34 51°15.676 2°49.215 15.0354 0.146049 0.833806 -1.766697
2008-03-28 09:58:34 51°15.769 2°49.428 15.0433 0.146049 0.833836 -1.766697
2008-03-28 09:59:34 51°15.861 2°49.642 15.0509 0.146049 0.833882 -1.766697
2008-03-28 10:00:34 51°15.956 2°49.854 15.0577 0.146049 0.833913 -1.731873
2008-03-28 10:01:33 51°16.046 2°50.064 15.0638 0.146049 0.833943 -1.766697
2008-03-28 10:02:34 51°16.137 2°50.283 15.0706 0.145946 0.833359 -1.766697
2008-03-28 10:03:34 51°16.23 2°50.493 15.0773 0.145946 0.833389 -1.766697
2008-03-28 10:04:34 51°16.319 2°50.704 15.0838 0.145946 0.833405 -1.731873
2008-03-28 10:05:34 51°16.405 2°50.923 15.0908 0.145946 0.833435 -1.731873
2008-03-28 10:06:34 51°16.506 2°51.126 15.0974 0.145946 0.833466 -1.766697
2008-03-28 10:07:34 51°16.606 2°51.329 15.1029 0.145946 0.833481 -1.766697
2008-03-28 10:08:34 51°16.707 2°51.531 15.1079 0.145946 0.833512 -1.731873
2008-03-28 10:09:34 51°16.811 2°51.727 15.1125 0.145946 0.833542 -1.766697
2008-03-28 10:10:34 51°16.93 2°51.904 15.1167 0.145946 0.833573 -1.766697
2008-03-28 10:11:34 51°17.058 2°52.06 15.1216 0.145946 0.833588 -1.731873
2008-03-28 10:12:34 51°17.185 2°52.217 15.1268 0.145946 0.833649 -1.731873
2008-03-28 10:13:34 51°17.331 2°52.323 15.1318 0.145946 0.833649 -1.731873
2008-03-28 10:14:34 51°17.487 2°52.391 15.1367 0.145946 0.833664 -1.766697
2008-03-28 10:15:34 51°17.644 2°52.457 15.14 0.145946 0.833695 -1.731873
2008-03-28 10:16:34 51°17.801 2°52.521 15.144 0.145946 0.833726 -1.731873
2008-03-28 10:17:34 51°17.961 2°52.591 15.1481 0.145946 0.833756 -1.731873
2008-03-28 10:18:34 51°18.111 2°52.754 15.1527 0.145946 0.833771 -1.766697
2008-03-28 10:19:34 51°18.191 2°53.032 15.1569 0.145946 0.833787 -1.731873
2008-03-28 10:20:34 51°18.267 2°53.316 15.163 0.145946 0.833817 -1.766697
2008-03-28 10:21:34 51°18.354 2°53.589 15.1686 0.145946 0.833817 -1.731873
2008-03-28 10:22:34 51°18.438 2°53.866 15.1729 0.145946 0.833817 -1.731873
2008-03-28 10:23:34 51°18.529 2°54.139 15.1777 0.145946 0.833848 -1.731873
2008-03-28 10:24:34 51°18.602 2°54.425 15.1824 0.145946 0.833863 -1.766697
2008-03-28 10:25:34 51°18.674 2°54.71 15.1879 0.145946 0.833894 -1.766697
2008-03-28 10:26:34 51°18.747 2°54.996 15.1942 0.145946 0.833909 -1.766697
2008-03-28 10:27:34 51°18.819 2°55.28 15.2 0.145946 0.83394 -1.731873
2008-03-28 10:28:34 51°18.892 2°55.559 15.205 0.145946 0.833955 -1.766697
2008-03-28 10:29:34 51°18.96 2°55.844 15.2089 0.145946 0.833986 -1.766697
2008-03-28 10:30:34 51°19.03 2°56.127 15.2139 0.145946 0.833986 -1.766697
2008-03-28 10:31:34 51°19.108 2°56.403 15.2184 0.145946 0.834032 -1.766697
2008-03-28 10:32:34 51°19.179 2°56.683 15.225 0.145946 0.834032 -1.731873
2008-03-28 10:33:34 51°19.251 2°56.961 15.232 0.145946 0.834062 -1.766697
2008-03-28 10:34:34 51°19.325 2°57.238 15.2376 0.145843 0.833462 -1.766697
2008-03-28 10:35:34 51°19.391 2°57.521 15.2422 0.145843 0.833477 -1.731873
2008-03-28 10:36:34 51°19.457 2°57.799 15.2466 0.145843 0.833492 -1.766697
2008-03-28 10:37:34 51°19.532 2°58.071 15.2506 0.145843 0.833538 -1.731873
2008-03-28 10:38:34 51°19.605 2°58.345 15.2561 0.145843 0.833538 -1.731873
2008-03-28 10:39:34 51°19.67 2°58.624 15.2619 0.145843 0.833553 -1.766697
2008-03-28 10:40:34 51°19.736 2°58.902 15.2679 0.145843 0.833569 -1.766697
2008-03-28 10:41:34 51°19.809 2°59.176 15.273 0.145843 0.833599 -1.731873
2008-03-28 10:42:34 51°19.882 2°59.451 15.278 0.145843 0.833615 -1.766697
2008-03-28 10:43:34 51°19.955 2°59.727 15.2828 0.145843 0.833615 -1.766697
2008-03-28 10:44:34 51°20.025 3°0.002 15.2872 0.145843 0.833676 -1.766697
2008-03-28 10:45:34 51°20.105 3°0.27 15.2932 0.145843 0.833676 -1.766697
2008-03-28 10:46:34 51°20.179 3°0.541 15.2989 0.145843 0.833691 -1.766697
2008-03-28 10:47:34 51°20.252 3°0.811 15.3055 0.145843 0.833722 -1.766697
2008-03-28 10:48:34 51°20.318 3°1.087 15.3111 0.145843 0.833722 -1.766697
2008-03-28 10:49:34 51°20.41 3°1.348 15.316 0.145843 0.833752 -1.766697
2008-03-28 10:50:34 51°20.514 3°1.597 15.3209 0.145843 0.833752 -1.766697
2008-03-28 10:51:34 51°20.613 3°1.854 15.3253 0.145843 0.833783 -1.731873
2008-03-28 10:52:34 51°20.712 3°2.11 15.3304 0.145843 0.833783 -1.766697
2008-03-28 10:53:34 51°20.81 3°2.368 15.3368 0.145843 0.833814 -1.766697
2008-03-28 10:54:34 51°20.905 3°2.632 15.3441 0.145843 0.833829 -1.766697
2008-03-28 10:55:34 51°21.005 3°2.893 15.349 0.145843 0.833844 -1.766697
2008-03-28 10:56:34 51°21.094 3°3.161 15.354 0.145843 0.83386 -1.766697
2008-03-28 10:57:34 51°21.178 3°3.436 15.3585 0.145843 0.833875 -1.766697
2008-03-28 10:58:34 51°21.241 3°3.726 15.3628 0.145843 0.83389 -1.766697
2008-03-28 10:59:34 51°21.301 3°4.016 15.3691 0.145843 0.833921 -1.766697
2008-03-28 11:00:34 51°21.363 3°4.302 15.3768 0.145843 0.833921 -1.766697
2008-03-28 11:01:34 51°21.428 3°4.586 15.3846 0.145843 0.833936 -1.766697
2008-03-28 11:02:34 51°21.489 3°4.868 15.3905 0.145843 0.833952 -1.766697
2008-03-28 11:03:34 51°21.552 3°5.148 15.396 0.145843 0.833967 -1.766697
2008-03-28 11:04:34 51°21.617 3°5.428 15.402 0.145843 0.833982 -1.766697
2008-03-28 11:05:34 51°21.687 3°5.708 15.4065 0.145843 0.833997 -1.766697
2008-03-28 11:06:34 51°21.75 3°5.993 15.4127 0.145843 0.833997 -1.766697
2008-03-28 11:07:34 51°21.813 3°6.278 15.4203 0.145843 0.834013 -1.766697
2008-03-28 11:08:34 51°21.88 3°6.564 15.4271 0.145843 0.834043 -1.766697
2008-03-28 11:09:34 51°21.949 3°6.852 15.4337 0.145843 0.834043 -1.766697
2008-03-28 11:10:34 51°22.017 3°7.141 15.4395 0.145843 0.834074 -1.766697
2008-03-28 11:11:34 51°22.085 3°7.426 15.4435 0.145843 0.834105 -1.731873
2008-03-28 11:12:34 51°22.155 3°7.709 15.4499 0.145843 0.834089 -1.766697
2008-03-28 11:13:34 51°22.22 3°7.995 15.4563 0.145843 0.834089 -1.766697
2008-03-28 11:14:34 51°22.25 3°8.297 15.4633 0.145843 0.834089 -1.766697
2008-03-28 11:15:34 51°22.263 3°8.605 15.4703 0.145843 0.83412 -1.766697
2008-03-28 11:16:34 51°22.277 3°8.914 15.4766 0.145843 0.834135 -1.766697
2008-03-28 11:17:34 51°22.294 3°9.219 15.4824 0.145843 0.834151 -1.766697
2008-03-28 11:18:34 51°22.313 3°9.522 15.4879 0.145843 0.834166 -1.766697
2008-03-28 11:19:34 51°22.331 3°9.828 15.493 0.145843 0.834181 -1.731873
2008-03-28 11:20:34 51°22.349 3°10.131 15.5001 0.145843 0.834197 -1.766697
2008-03-28 11:21:34 51°22.368 3°10.433 15.5082 0.145843 0.834212 -1.766697
2008-03-28 11:22:34 51°22.392 3°10.704 15.5153 0.145843 0.834227 -1.766697
2008-03-28 11:23:34 51°22.406 3°10.879 15.5217 0.145843 0.834243 -1.766697
2008-03-28 11:24:34 51°22.42 3°11.009 15.5279 0.145843 0.834258 -1.766697
2008-03-28 11:25:34 51°22.419 3°11.164 15.5337 0.145843 0.834258 -1.731873
2008-03-28 11:26:34 51°22.416 3°11.35 15.5395 0.145843 0.834273 -1.766697
2008-03-28 11:27:34 51°22.412 3°11.543 15.5465 0.145843 0.834289 -1.766697
2008-03-28 11:28:34 51°22.446 3°11.674 15.5553 0.145843 0.834381 -1.731873
2008-03-28 11:29:34 51°22.516 3°11.631 15.563 0.145843 0.834365 -1.731873
2008-03-28 11:30:34 51°22.539 3°11.509 15.5697 0.145843 0.834365 -1.731873
2008-03-28 11:31:34 51°22.528 3°11.421 15.5765 0.145843 0.834335 -1.731873
2008-03-28 11:32:34 51°22.515 3°11.362 15.584 0.145843 0.83435 -1.731873
2008-03-28 11:33:34 51°22.515 3°11.322 15.5916 0.145843 0.834396 -1.731873
2008-03-28 11:34:34 51°22.526 3°11.29 15.5993 0.145843 0.834411 -1.731873
2008-03-28 11:35:34 51°22.54 3°11.266 15.6078 0.145843 0.834427 -1.731873
2008-03-28 11:36:34 51°22.553 3°11.247 15.6157 0.145843 0.834442 -1.731873
2008-03-28 11:37:34 51°22.568 3°11.229 15.6231 0.145843 0.834503 -1.731873
2008-03-28 11:38:34 51°22.581 3°11.211 15.63 0.145741 0.833963 -1.731873
2008-03-28 11:39:34 51°22.593 3°11.192 15.6368 0.145741 0.834071 -1.731873
2008-03-28 11:40:34 51°22.601 3°11.147 15.6429 0.145741 0.834209 -1.731873
2008-03-28 11:41:34 51°22.581 3°11.038 15.6497 0.145741 0.834301 -1.731873
2008-03-28 11:42:34 51°22.537 3°10.864 15.6553 0.145741 0.834454 -1.731873
2008-03-28 11:43:34 51°22.476 3°10.642 15.6597 0.145638 0.833975 -1.731873
2008-03-28 11:44:34 51°22.425 3°10.401 15.6641 0.145638 0.834098 -1.731873
2008-03-28 11:45:34 51°22.379 3°10.152 15.6676 0.145638 0.834175 -1.731873
2008-03-28 11:46:34 51°22.337 3°9.89 15.6716 0.145638 0.834252 -1.731873
2008-03-28 11:47:34 51°22.294 3°9.626 15.6758 0.145638 0.834329 -1.731873
2008-03-28 11:48:33 51°22.249 3°9.366 15.6799 0.145535 0.833757 -1.731873
2008-03-28 11:49:33 51°22.205 3°9.1 15.6841 0.145535 0.833819 -1.731873
2008-03-28 11:50:33 51°22.16 3°8.832 15.6884 0.145535 0.833865 -1.731873
2008-03-28 11:51:33 51°22.115 3°8.562 15.6921 0.145535 0.833896 -1.731873
2008-03-28 11:52:33 51°22.071 3°8.293 15.6955 0.145535 0.833942 -1.731873
2008-03-28 11:53:33 51°22.028 3°8.023 15.6989 0.145535 0.833988 -1.731873
2008-03-28 11:54:33 51°21.983 3°7.754 15.7025 0.145535 0.834018 -1.731873
2008-03-28 11:55:33 51°21.938 3°7.483 15.7069 0.145535 0.834049 -1.731873
2008-03-28 11:56:33 51°21.893 3°7.212 15.7115 0.145535 0.83408 -1.731873
2008-03-28 11:57:33 51°21.847 3°6.945 15.7158 0.145535 0.834111 -1.731873
2008-03-28 11:58:33 51°21.796 3°6.679 15.7202 0.145535 0.834141 -1.731873
2008-03-28 11:59:33 51°21.746 3°6.415 15.7247 0.145535 0.834172 -1.731873
2008-03-28 12:00:33 51°21.696 3°6.151 15.7296 0.145432 0.83357 -1.731873
2008-03-28 12:01:33 51°21.644 3°5.887 15.7339 0.145432 0.833601 -1.731873
2008-03-28 12:02:33 51°21.592 3°5.621 15.7377 0.145432 0.833631 -1.731873
2008-03-28 12:03:33 51°21.539 3°5.356 15.7427 0.145432 0.833647 -1.731873
2008-03-28 12:04:33 51°21.486 3°5.09 15.7476 0.145432 0.833677 -1.731873
2008-03-28 12:05:33 51°21.433 3°4.827 15.7519 0.145432 0.833708 -1.731873
2008-03-28 12:06:33 51°21.374 3°4.562 15.7567 0.145432 0.833723 -1.731873
2008-03-28 12:07:33 51°21.305 3°4.26 15.761 0.145432 0.833754 -1.731873
2008-03-28 12:08:33 51°21.226 3°3.939 15.7653 0.145432 0.833785 -1.731873
2008-03-28 12:09:33 51°21.148 3°3.617 15.7703 0.145432 0.8338 -1.731873
2008-03-28 12:10:33 51°21.071 3°3.296 15.7755 0.145432 0.833831 -1.731873
2008-03-28 12:11:33 51°20.99 3°2.978 15.7802 0.145432 0.833846 -1.731873
2008-03-28 12:12:33 51°20.904 3°2.665 15.785 0.145432 0.833862 -1.731873
2008-03-28 12:13:33 51°20.821 3°2.354 15.789 0.145432 0.833893 -1.731873
2008-03-28 12:14:33 51°20.74 3°2.043 15.7926 0.145432 0.833923 -1.731873
2008-03-28 12:15:33 51°20.661 3°1.729 15.7964 0.145432 0.833939 -1.731873
2008-03-28 12:16:33 51°20.582 3°1.416 15.8 0.145432 0.833954 -1.731873
2008-03-28 12:17:33 51°20.501 3°1.102 15.8043 0.145432 0.833985 -1.731873
2008-03-28 12:18:33 51°20.422 3°0.786 15.8086 0.145432 0.834 -1.731873
2008-03-28 12:19:33 51°20.342 3°0.472 15.8126 0.145432 0.834031 -1.731873
2008-03-28 12:20:33 51°20.261 3°0.158 15.8168 0.145432 0.834046 -1.731873
2008-03-28 12:21:33 51°20.181 2°59.844 15.8209 0.145432 0.834077 -1.731873
2008-03-28 12:22:33 51°20.102 2°59.528 15.8255 0.145432 0.834092 -1.731873
2008-03-28 12:23:33 51°20.022 2°59.211 15.83 0.145432 0.834123 -1.731873
2008-03-28 12:24:33 51°19.942 2°58.894 15.8346 0.145432 0.834123 -1.731873
2008-03-28 12:25:33 51°19.862 2°58.578 15.8393 0.145432 0.834139 -1.731873
2008-03-28 12:26:33 51°19.783 2°58.265 15.8437 0.145432 0.834154 -1.731873
2008-03-28 12:27:33 51°19.704 2°57.952 15.847 0.145432 0.834185 -1.731873
2008-03-28 12:28:33 51°19.624 2°57.64 15.8509 0.145432 0.8342 -1.731873
2008-03-28 12:29:33 51°19.544 2°57.327 15.8548 0.145432 0.834215 -1.731873
2008-03-28 12:30:33 51°19.464 2°57.014 15.8589 0.145432 0.834262 -1.731873
2008-03-28 12:31:33 51°19.384 2°56.706 15.8633 0.145432 0.834262 -1.731873
2008-03-28 12:32:33 51°19.303 2°56.396 15.8676 0.145432 0.834277 -1.731873
2008-03-28 12:33:33 51°19.22 2°56.085 15.8712 0.145329 0.83369 -1.731873
2008-03-28 12:34:33 51°19.14 2°55.773 15.8746 0.145329 0.833705 -1.731873
2008-03-28 12:35:33 51°19.059 2°55.464 15.8781 0.145329 0.83372 -1.731873
2008-03-28 12:36:33 51°18.979 2°55.155 15.8815 0.145329 0.833736 -1.731873
2008-03-28 12:37:33 51°18.9 2°54.848 15.8849 0.145329 0.833767 -1.731873
2008-03-28 12:38:33 51°18.821 2°54.54 15.8887 0.145329 0.833782 -1.731873
2008-03-28 12:39:33 51°18.741 2°54.231 15.8918 0.145329 0.833797 -1.731873
2008-03-28 12:40:33 51°18.661 2°53.922 15.8958 0.145329 0.833797 -1.731873
2008-03-28 12:41:33 51°18.582 2°53.614 15.8994 0.145329 0.833843 -1.731873
2008-03-28 12:42:33 51°18.504 2°53.308 15.9033 0.145329 0.833859 -1.731873
2008-03-28 12:43:33 51°18.413 2°53.01 15.906 0.145329 0.833859 -1.731873
2008-03-28 12:44:33 51°18.284 2°52.756 15.9093 0.145329 0.833874 -1.731873
2008-03-28 12:45:33 51°18.118 2°52.569 15.9132 0.145329 0.83389 -1.731873
2008-03-28 12:46:33 51°17.932 2°52.452 15.9177 0.145329 0.83389 -1.731873
2008-03-28 12:47:33 51°17.733 2°52.397 15.9223 0.145329 0.83389 -1.766697
2008-03-28 12:48:33 51°17.533 2°52.359 15.9247 0.145329 0.83392 -1.731873
2008-03-28 12:49:33 51°17.334 2°52.337 15.9268 0.145329 0.833936 -1.766697
2008-03-28 12:50:33 51°17.136 2°52.346 15.929 0.145329 0.833951 -1.731873
2008-03-28 12:51:33 51°16.942 2°52.418 15.9312 0.145329 0.83392 -1.766697
2008-03-28 12:52:33 51°16.757 2°52.534 15.9359 0.145329 0.833936 -1.731873
2008-03-28 12:53:33 51°16.577 2°52.676 15.941 0.145329 0.833936 -1.766697
2008-03-28 12:54:34 51°16.398 2°52.821 15.9439 0.145329 0.833951 -1.766697
2008-03-28 12:55:33 51°16.225 2°52.963 15.946 0.145329 0.833951 -1.731873
2008-03-28 12:56:34 51°16.043 2°53.1 15.9482 0.145329 0.833982 -1.731873
2008-03-28 12:57:33 51°15.87 2°53.234 15.9498 0.145329 0.833967 -1.766697
2008-03-28 12:58:34 51°15.689 2°53.371 15.9532 0.145329 0.833982 -1.766697
2008-03-28 12:59:34 51°15.51 2°53.507 15.959 0.145329 0.833982 -1.766697
2008-03-28 13:00:33 51°15.338 2°53.645 15.964 0.145329 0.833997 -1.766697
2008-03-28 13:01:33 51°15.164 2°53.795 15.9675 0.145329 0.834028 -1.731873
2008-03-28 13:02:33 51°15.003 2°53.978 15.9711 0.145329 0.833997 -1.766697
2008-03-28 13:03:33 51°14.842 2°54.161 15.9755 0.145329 0.833997 -1.766697
2008-03-28 13:04:33 51°14.692 2°54.361 15.9817 0.145329 0.834013 -1.766697
2008-03-28 13:05:33 51°14.573 2°54.613 15.9897 0.145329 0.834013 -1.766697
2008-03-28 13:06:33 51°14.457 2°54.875 15.998 0.145329 0.834013 -1.766697
2008-03-28 13:07:33 51°14.333 2°55.131 16.0065 0.145329 0.834028 -1.766697
2008-03-28 13:08:35 51°14.196 2°55.347 16.015 0.145329 0.834044 -1.766697
2008-03-28 13:09:37 51°14.059 2°55.469 16.0233 0.145329 0.834059 -1.731873
2008-03-28 13:10:37 51°13.929 2°55.565 16.0315 0.145329 0.834059 -1.731873
2008-03-28 13:11:35 51°13.821 2°55.642 16.0402 0.145329 0.834059 -1.766697
2008-03-28 13:12:34 51°13.751 2°55.719 16.0479 0.145329 0.834074 -1.731873
2008-03-28 13:13:37 51°13.704 2°55.816 16.056 0.145329 0.834059 -1.766697
2008-03-28 13:14:37 51°13.674 2°55.912 16.0634 0.145329 0.834059 -1.766697